Simultaneous Nadir Overpasses (SNOs) Predictions

Prediction of SNOs near equator between AQUA and NPP Satellite Orbit:

Table of predicted SNOs near equator for the next 14.0 days since TLE Epoch: 10/5/2012
Index Date (AQUA) Time (AQUA) AQUA Lat,Lon Date (NPP) Time (NPP) NPP Lat,Lon Distance(km) Time Diff (sec)
1 10/06/2012 17:17:05 -13.71, 122.52 10/06/2012 17:07:05 -13.77, 121.84 73.67 600
2 10/06/2012 18:03:23 2.06, -67.34 10/06/2012 17:54:32 1.88, -68.16 93.20 531
3 10/09/2012 09:31:17 -5.36,-119.80 10/09/2012 09:21:32 -5.25,-120.43 71.42 585
4 10/12/2012 01:47:26 -4.04, -3.65 10/12/2012 01:38:02 -3.88, -4.35 79.99 564
5 10/14/2012 17:21:44 29.99, -61.39 10/14/2012 17:11:44 30.26, -62.29 91.71 600
6 10/14/2012 18:03:34 -2.71, 112.51 10/14/2012 17:54:32 -2.52, 111.73 88.94 542
7 10/17/2012 09:31:33 5.84, 60.06 10/17/2012 09:21:39 5.72, 59.46 67.79 594
8 10/17/2012 10:19:41 -1.35,-131.32 10/17/2012 10:11:02 -1.16,-132.18 98.13 519




NCC Satellite Simultaneous Nadir Overpasses (SNOs) Prediction Service
